Terminal Aerodrome Forecast
Issued by NWS Wakefield, VA

Home | Current Version | Previous Version | Text Only | Print | Product List | Glossary On
Versions: 1 2 3 4 5 6 7 8 9 10 11 12 13 14 15 16 17 18 19 20 21 22 23 24 25 26 27 28 29 30 31 32 33 34 35 36 37 38 39
000
FTUS41 KAKQ 231543 AAI
TAFORF
TAF AMD
KORF 231543Z 2316/2412 12011G18KT P6SM OVC006
      TEMPO 2316/2317 SCT006
     FM231700 20008KT P6SM OVC007
     FM232000 33004KT P6SM BKN020
     FM240300 32007KT P6SM -SHRA OVC004
     FM240600 32013G20KT P6SM -SHRA OVC004=

USA.gov is the U.S. government's official web portal to all federal, state and local government web resources and services.